Location: Caualo
(45.5667°N, 10.8667°E)
Time: 18:04:03
(UTC+00:00)

Cosmos 540 Rocket - Pass Details

Date: 07 June 2020
Orbit: 741 x 753 km, 74.1° (Epoch: 06 July)

Event Time Altitude Azimuth Distance (km) Brightness Sun altitude
Exits shadow 00:41:03 31° 236° (SW) 1,297 4.2 -18.9°
Maximum altitude 00:43:15 52° 296° (WNW) 926 3.9 -18.8°
Drops below altitude 10° 00:48:15 10° 13° (NNE) 2,265 7.2 -18.5°
Sets 00:50:41 0° 18° (NNE) 3,191 8.4 -18.3°
